Regional Weather Roundup
Issued by NWS

Home | Current Version | Previous Version | Graphics & Text | Print | Product List | Glossary On
Versions: 1 2 3 4 5 6 7 8 9 10 11 12 13 14 15 16 17 18 19 20 21 22 23 24 25 26 27 28 29 30 31 32 33 34 35 36 37 38 39 40 41 42 43 44 45 46 47 48 49 50
902
ASUS45 KCYS 251510
RWRWY

WYOMING REGIONAL WEATHER ROUNDUP
NATIONAL WEATHER SERVICE CHEYENNE WY
900 AM MDT WED APR 25 2018

NOTE:  "FAIR" INDICATES FEW OR NO CLOUDS BELOW 12,000 FEET
WITH NO SIGNIFICANT WEATHER AND/OR OBSTRUCTIONS TO VISIBILITY.

WYZ001-251600-
YELLOWSTONE NATIONAL PARK

CITY           SKY/WX    TMP DP  RH WIND       PRES   REMARKS
LK YELLOWSTONE   N/A     26  16  65 CALM      30.34F
W YELLOWSTONE  NOT AVBL

$$
WYZ002>013-054>058-071-098>099-251600-
NORTHERN WYOMING

CITY           SKY/WX    TMP DP  RH WIND       PRES   REMARKS
JACKSON        FAIR      34  20  56 CALM      30.34F
CODY           FAIR      45  21  38 NW5       30.21F
GREYBULL       FAIR      40  30  67 VRB3      30.24F
WORLAND        FAIR      39  29  67 VRB3      30.24F
SHERIDAN       FAIR      40  29  64 CALM      30.12F
BUFFALO        FAIR      45  22  40 SE5       30.14F
GILLETTE       FAIR      47  30  51 S18       30.14F
HULETT         FAIR      46  25  42 S15G24    30.17F
NEWCASTLE      FAIR      41  27  56 SE10      30.25F

$$
WYZ014>020-022>026-101>103-251600-
CENTRAL WYOMING

CITY           SKY/WX    TMP DP  RH WIND       PRES   REMARKS
BIG PINEY      FAIR      33  21  61 CALM      30.38F
PINEDALE       FAIR      34  21  60 NW5       30.38F WCI  30
DUBOIS         FAIR      39  18  41 NW13G21   30.26S WCI  32
LANDER         FAIR      36  22  56 CALM      30.27S
RIVERTON       FAIR      37  26  64 CALM      30.28F
CASPER         FAIR      42  22  44 SW23G31   30.27F
DOUGLAS        FAIR      37  28  70 CALM      30.27F

$$
WYZ021-027>030-104>119-251600-
SOUTHERN WYOMING

CITY           SKY/WX    TMP DP  RH WIND       PRES   REMARKS
EVANSTON       FAIR      37  21  52 E3        30.34S
KEMMERER       FAIR      36  21  55 E5        30.36S WCI  32
FORT BRIDGER   FAIR      34  21  60 NE5       30.38F WCI  29
ROCK SPRINGS   FAIR      34  18  52 CALM      30.37F
DIXON          FAIR      34  21  60 SW3       30.42S
RAWLINS        FAIR      35  20  54 VRB6      30.37S WCI  30
SARATOGA       FAIR      37  21  52 SE9       30.37S WCI  31
LARAMIE        FAIR      34  22  61 CALM      30.32F
CHEYENNE       FAIR      38  27  64 VRB6      30.30F WCI  33
TORRINGTON     FAIR      36  30  79 CALM      30.30F
PINE BLUFFS    FAIR      39  28  65 MISG      30.32F

$$




USA.gov is the U.S. government's official web portal to all federal, state and local government web resources and services.